Location: *
(48.8667°N, 2.3331°E)
Time: 22:44:24
(UTC+00:00)

STARLINK-1230 - Pass Details

Date: 09 April 2020
Orbit: 549 x 550 km, 53.0° (Epoch: 24 May)

Event Time Altitude Azimuth Distance (km) Brightness Sun altitude
Rises 19:18:27 0° 291° (WNW) 2,724 9.8 -7.8°
Reaches altitude 10° 19:20:43 10° 295° (WNW) 1,829 8.0 -8.1°
Maximum altitude 19:24:50 60° 16° (NNE) 632 4.0 -8.7°
Enters shadow 19:28:41 12° 96° (E) 1,727 5.5 -9.3°
